Voltar ao catálogo

STARLINK-31717

AtivoComunicaçõesVLEO
NORAD 59385·PAYLOAD·🇺🇸 United States

Lançado Apr 2, 2024 de Vandenberg Space Force Base

Loading…

Próximas Passagens (próximas 24 horas)

TLE

AtualizadoSource: CelesTrak SupGP

Época: Sep 15, 2026, 02:12 UTC

1 59385C 24062M   26258.09215278  .00011907  00000+0  35178-3 0  2583
2 59385  53.1575  92.7313 0001098  80.6552 312.6587 15.34386317    11

Acompanhe STARLINK-31717 em tempo real com AllMySat

Download on the App Store